Regional Weather Roundup
Issued by NWS

Home | Current Version | Previous Version | Text Only | Print | Product List | Glossary On
Versions: 1 2 3 4 5 6 7 8 9 10 11 12 13 14 15 16 17 18 19 20 21 22 23 24 25 26 27 28 29 30 31 32 33 34 35 36 37 38 39 40 41 42 43 44 45 46 47 48 49 50
000
ASUS43 KDTX 272010
RWRMI
MICHIGAN HOURLY REGIONAL WEATHER ROUNDUP
NATIONAL WEATHER SERVICE DETROIT/PONTIAC MI
300 PM EST SAT DEC 27 2014

NOTE: "FAIR" INDICATES FEW OR NO CLOUDS BELOW 12,000 FEET WITH NO
SIGNIFICANT WEATHER AND/OR OBSTRUCTION TO VISIBILITY.

MIZ047>049-052>055-059>063-066>070-074>076-081>083-272100-
SOUTHEAST LOWER MICHIGAN

CITY           SKY/WX    TMP DP  RH WIND       PRES   REMARKS
ADRIAN         CLOUDY    46  44  93 SW14G21   29.97F
ALMA           CLOUDY    47  45  93 SW13G25   29.84F FOG
ANN ARBOR      CLOUDY    47  45  93 SW13      29.96S FOG
BAD AXE        CLOUDY    48  46  92 SW17G23   29.84F
CARO           CLOUDY    48  44  85 SW15G25   29.85F
DETROIT CITY   CLOUDY    49  43  80 SW21G26   29.93F
DETROIT        CLOUDY    47  45  93 SW20G28   29.96S
FLINT          CLOUDY    50  44  80 SW15G25   29.89F
GROSSE ILE     CLOUDY    48  45  87 SW10G16   29.95S
HILLSDALE      CLOUDY    46  46 100 SW15      29.96S FOG
HOWELL         CLOUDY    47  45  93 SW10G23   29.91S

CITY           SKY/WX    TMP DP  RH WIND       PRES   REMARKS
JACKSON        CLOUDY    47  44  90 SW16G23   29.92F
LAMBERTVILLE   CLOUDY    50  43  76 SW10G18   29.98F
LANSING        CLOUDY    48  44  86 SW21G30   29.89F
LAPEER         CLOUDY    47  43  85 SW16G22   29.89F
MASON          CLOUDY    47  43  88 SW12G22   29.91S
MONROE         CLOUDY    48  45  87 SW14G25   29.96S
MT. CLEMENS    CLOUDY    47  43  84 SW10      29.91
PONTIAC        DRIZZLE   46  44  93 SW13G21   29.92S
PORT HOPE        N/A     49  43  80 SW15G31   29.80F
PORT HURON     CLOUDY    45  43  93 S13       29.92S
TRI CITIES     CLOUDY    50  44  80 SW18G25   29.85S
TROY           CLOUDY    48  44  88 SW12G23   29.95S
SAGINAW HB     CLOUDY    48  46  93 SW17      29.85S
$$
MIZ043>046-050>051-056>058-064>065-071>073-077>080-272100-
SOUTHWEST LOWER MICHIGAN

CITY           SKY/WX    TMP DP  RH WIND       PRES   REMARKS
BATTLE CREEK   CLOUDY    48  45  89 SW17G28   29.92F FOG
BENTON HARBOR  CLOUDY    42  40  92 W17G30    29.95R FOG
BIG RAPIDS     LGT RAIN  46  45  95 SW25G36   29.79F
COLDWATER      CLOUDY    46  45  97 SW13G28   29.95F FOG
FREMONT        CLOUDY    44  41  91 SW22G36   29.84R
HOLLAND        CLOUDY    44  39  82 SW23G33   29.91R
GRAND RAPIDS   LGT RAIN  49  44  83 SW18G29   29.88S
IONIA          LGT RAIN  48  46  95 SW18G26   29.86F
KALAMAZOO      CLOUDY    48  45  89 SW16G25   29.92F FOG
LUDINGTON      CLOUDY    43  39  87 W17G25    29.83R
MARSHALL       CLOUDY    46  45  95 SW14G21   29.93F
MOUNT PLEASANT RAIN      47  46  93 SW12G18   29.81F
MUSKEGON       CLOUDY    44  40  85 SW15G22   29.89R
SOUTH HAVEN    DRIZZLE   42  39  89 W15G26    29.93R
$$
MIZ016>042-272100-
NORTHERN LOWER MICHIGAN

CITY           SKY/WX    TMP DP  RH WIND       PRES   REMARKS
ALPENA         LGT RAIN  46  43  89 SW16G22   29.72S
BEAVER ISLAND  FLURRIES  33  33  99 N5        29.72R WCI  29
BELLAIRE       LGT RAIN  45  42  91 W13G22    29.72S
CADILLAC       MIX PCPN  44  42  90 SW20G33   29.74S
CHARLEVOIX     CLOUDY    41  40  97 SW18G29   29.73S FOG
FRANKFORT      CLOUDY    40  38  94 W13G18    29.77R WCI  33
GAYLORD        RAIN      43  42  97 SW20G28   29.68F FOG
GRAYLING       CLOUDY    46  44  94 SW14G23   29.71F
HARBOR SPRINGS DRIZZLE   41  40  95 SW13G25   29.69S
HOUGHTON LAKE  CLOUDY    45  42  89 SW20G28   29.75F
MANISTEE       CLOUDY    39  36  87 W16       29.81R WCI  30
OSCODA         CLOUDY    46  44  92 SW15G23   29.76S
PELLSTON       RAIN      43  41  93 SW13G28   29.69S FOG
ROGERS CITY    CLOUDY    45  44  97 S14       29.69F
TRAVERSE CITY  LGT RAIN  44  41  89 W16G29    29.73R FOG
$$
MIZ007>008-015-272100-
EASTERN UPPER MICHIGAN

CITY           SKY/WX    TMP DP  RH WIND       PRES   REMARKS
KINROSS        CLOUDY    34  34 100 NW6       29.66F WCI  29
MACKINAC ISLAN FOG       38  38 100 W8        29.67S VSB 1   WCI  32
NEWBERRY       LGT SNOW  32  32 100 N9G16     29.71S WCI  24
S. S. MARIE    LGT RAIN  33  32  96 W6        29.64F FOG     WCI  28
MUNISING         N/A     34  31  88 N16       29.78S WCI  24
$$
MIZ004>006-011>014-085-272100-
CENTRAL UPPER MICHIGAN

CITY           SKY/WX    TMP DP  RH WIND       PRES   REMARKS
MANISTIQUE     LGT SNOW  33  32  99 N14G20    29.73S WCI  23
ESCANABA       CLOUDY    34  30  86 NW7       29.78R WCI  28
MENOMINEE      CLOUDY    34  30  86 NW7       29.80R WCI  28
SAWYER-GWINN   LGT SNOW  30  27  86 N12       29.78S WCI  21
$$
MIZ001>003-009>011-084-272100-
WESTERN UPPER MICHIGAN

CITY           SKY/WX    TMP DP  RH WIND       PRES   REMARKS
IRON MOUNTAIN  FLURRIES  31  28  89 NW12      29.80R WCI  22
HOUGHTON       CLOUDY    28  23  81 N8        29.84S HAZE    WCI  20
COPPER HARBOR    N/A     30  23  75 NE15      29.85F WCI  19
IRONWOOD       CLOUDY    25  21  86 NW10      29.89S WCI  15
$$

ABBREVIATIONS USED IN REMARKS
   TC - TEMPERATURE IN CELSIUS
  WCI - WIND CHILL INDEX
   HX - HEAT INDEX
  VSB - VISIBILITY



USA.gov is the U.S. government's official web portal to all federal, state and local government web resources and services.